Regional Weather Roundup
Issued by NWS

Home | Current Version | Previous Version | Graphics & Text | Print | Product List | Glossary On
Versions: 1 2 3 4 5 6 7 8 9 10 11 12 13 14 15 16 17 18 19 20 21 22 23 24 25 26 27 28 29 30 31 32 33 34 35 36 37 38 39 40 41 42 43 44 45 46 47 48 49 50
000
ASUS43 KDMX 291607
RWRIA

WEATHER ROUNDUP FOR IOWA
NATIONAL WEATHER SERVICE DES MOINES IA
1100 AM CDT TUE JUL 29 2014

NOTE: "FAIR" INDICATES FEW OR NO CLOUDS BELOW 12,000 FEET WITH NO
SIGNIFICANT WEATHER AND/OR OBSTRUCTIONS TO VISIBILITY.

* - THESE STATIONS ARE NOT NWS STATIONS...THUS NOT UNDER NWS
QUALITY CONTROL.  THEY ALSO DO NOT REPORT WEATHER SUCH
AS PRECIPITATION OR FOG.

IAZ001>003-012>014-020>022-031>034-043>046-291700-
   NORTHWEST IOWA

CITY           SKY/WX    TMP DP  RH WIND       PRES   REMARKS
CARROLL *      SUNNY     72  55  56 NW7       30.20S
CHEROKEE *     MOSUNNY   70  57  64 N6        30.22S
DENISON *      MOSUNNY   70  55  60 VRB8      30.20S
LE MARS *      MOSUNNY   70  55  60 VRB5      30.23S
ORANGE CITY *  SUNNY     70  55  60 NW8       30.23S
SHELDON *      SUNNY     70  55  60 NW8       30.21S
SIOUX CITY     PTSUNNY   71  58  63 W5        30.22F
SPENCER        SUNNY     72  56  57 NW10      30.21S
STORM LAKE *   SUNNY     70  57  64 N7        30.22S
$$

IAZ055>058-069>071-079>083-090>094-291700-
   SOUTHWEST IOWA

CITY           SKY/WX    TMP DP  RH WIND       PRES   REMARKS
ATLANTIC *     MOSUNNY   72  55  56 N7        30.21R
AUDUBON *      MOSUNNY   73  61  64 NW5       30.22R
CLARINDA *     MOSUNNY   72  59  64 CALM      30.21S
COUNCIL BLFS * MOSUNNY   72  63  73 VRB5      30.21S
CRESTON *      MOSUNNY   72  57  60 N6G13     30.21R
HARLAN  *      MOSUNNY   70  57  64 VRB5      30.25S
LAMONI         SUNNY     74  56  53 NW7       30.19S
RED OAK *      SUNNY     73  57  56 NW7       30.21S
SHENANDOAH *   MOSUNNY   73  61  64 CALM      30.21S
$$

IAZ047>049-059>061-072>074-084-291700-
   CENTRAL IOWA

CITY           SKY/WX    TMP DP  RH WIND       PRES   REMARKS
AMES           SUNNY     73  57  57 NW7       30.17F
ANKENY *       SUNNY     73  57  56 NW9       30.17F
CHARITON *     SUNNY     72  57  60 VRB7      30.19R
DES MOINES     MOSUNNY   76  56  49 NW9       30.17S
GRINNELL*      SUNNY     72  59  64 NW8       30.17S
KNOXVILLE *    SUNNY     72  57  60 NW7       30.16S
MARSHALLTOWN   SUNNY     72  61  68 W6        30.16S
PELLA *        SUNNY     73  59  60 NW8       30.18S
PERRY *          N/A     70  59  68 NW6       30.19S
$$

IAZ004>006-015-016-023>025-035-036-291700-
   NORTH CENTRAL IOWA

CITY           SKY/WX    TMP DP  RH WIND       PRES   REMARKS
ALGONA *       SUNNY     70  59  68 N9        30.19S
CLARION *      SUNNY     72  59  64 NW8       30.18S
ESTHERVILLE    SUNNY     70  56  61 N9        30.20S
FORT DODGE *   SUNNY     72  59  64 NW6       30.20S
MASON CITY     SUNNY     72  59  63 NW9       30.18S
FOREST CITY *  SUNNY     70  59  68 NE12      30.18R
IOWA FALLS *     N/A     72  59  64 NW7       30.18S
$$

IAZ007>011-017>019-026>030-037>042-050>054-066-291700-
   NORTHEAST IOWA

CITY           SKY/WX    TMP DP  RH WIND       PRES   REMARKS
CEDAR RAPIDS   SUNNY     72  50  45 W7        30.13S
CHARLES CITY * SUNNY     72  59  64 NW8       30.15F
CLINTON *      SUNNY     72  59  64 NW6       30.14R
DECORAH *      SUNNY     72  59  64 NW9       30.12S
DUBUQUE        SUNNY     72  59  63 NW8       30.11S
MONTICELLO *   SUNNY     73  59  60 NW8       30.12S
OELWEIN *      SUNNY     72  59  64 NW10      30.14S
WATERLOO       SUNNY     73  60  63 NW7       30.14R
$$

IAZ064-065-067-068-078-291700-
   EAST CENTRAL IOWA

CITY           SKY/WX    TMP DP  RH WIND       PRES   REMARKS
DAVENPORT      SUNNY     73  59  61 NW8       30.12S
IOWA CITY      SUNNY     73  59  61 NW7       30.14S
MT. PLEASANT * SUNNY     73  57  56 NW5       30.15S
MUSCATINE *    SUNNY     73  59  60 W8G14     30.13S
QUAD CITIES    SUNNY     74  58  57 W6        30.11S
$$

IAZ062-063-075>077-085>089-095>099-291700-
   SOUTHEAST IOWA

CITY           SKY/WX    TMP DP  RH WIND       PRES   REMARKS
BURLINGTON     SUNNY     73  59  61 VRB7      30.14R
FAIRFIELD *    SUNNY     73  57  56 NW8       30.16S
FORT MADISON * SUNNY     73  61  64 NW6       30.15S
KEOKUK *       SUNNY     73  59  60 N6        30.15R
OSKALOOSA *      N/A     73  61  64 NW6       30.17S
CENTERVILLE *  SUNNY     73  57  56 N6        30.20R
OTTUMWA        SUNNY     73  58  59 NW10      30.16R
WASHINGTON *   SUNNY     73  61  64 W8        30.15S
$$

ABBREVIATIONS USED IN REMARKS
   TC - TEMPERATURES IN CELSIUS
  WCI - WIND CHILL INDEX
   HX - HEAT INDEX
  VSB - VISIBILITY
$$




USA.gov is the U.S. government's official web portal to all federal, state and local government web resources and services.